Time,TemperatureF,DewpointF,PressureIn,WindDirection,WindDirectionDegrees,WindSpeedMPH,WindSpeedGustMPH,Humidity,HourlyPrecipIn,Conditions,Clouds,dailyrainin,SoftwareType,DateUTC
2013-10-30 00:02:00,70.8,67.0,30.04,SSE,157,7.2,8.0,89,0.00,,,0.00,Rainwise IP-100,2013-10-30 05:02:00,
2013-10-30 00:07:00,70.7,67.0,30.04,SSE,157,3.3,8.0,90,0.00,,,0.00,Rainwise IP-100,2013-10-30 05:07:00,
2013-10-30 00:12:00,70.7,67.0,30.04,ESE,112,5.8,7.0,90,0.00,,,0.00,Rainwise IP-100,2013-10-30 05:12:00,
2013-10-30 00:17:00,70.6,67.0,30.04,SSE,157,4.0,6.0,90,0.00,,,0.00,Rainwise IP-100,2013-10-30 05:17:00,
2013-10-30 00:22:00,70.5,67.0,30.04,SE,135,4.4,6.0,91,0.00,,,0.00,Rainwise IP-100,2013-10-30 05:22:00,
2013-10-30 00:27:00,70.5,67.0,30.04,East,90,8.4,9.0,91,0.00,,,0.00,Rainwise IP-100,2013-10-30 05:27:00,
2013-10-30 00:32:00,70.4,67.0,30.04,SE,135,3.0,10.0,91,0.00,,,0.00,Rainwise IP-100,2013-10-30 05:32:00,
2013-10-30 00:37:00,70.4,67.0,30.04,SSE,157,5.4,7.0,90,0.00,,,0.00,Rainwise IP-100,2013-10-30 05:37:00,
2013-10-30 00:42:00,70.5,67.0,30.04,SE,135,5.4,8.0,90,0.00,,,0.00,Rainwise IP-100,2013-10-30 05:42:00,
2013-10-30 00:47:00,70.5,67.0,30.03,ESE,112,9.8,9.8,90,0.00,,,0.00,Rainwise IP-100,2013-10-30 05:47:00,
2013-10-30 00:52:00,70.4,67.0,30.03,ESE,112,3.5,11.0,90,0.00,,,0.00,Rainwise IP-100,2013-10-30 05:52:00,
2013-10-30 00:57:00,70.3,67.0,30.03,SSE,157,4.2,11.0,90,0.00,,,0.00,Rainwise IP-100,2013-10-30 05:57:00,
2013-10-30 01:02:00,70.2,67.0,30.03,SE,135,6.3,9.0,90,0.00,,,0.00,Rainwise IP-100,2013-10-30 06:02:00,
2013-10-30 01:07:00,70.1,67.0,30.03,SE,135,8.2,10.0,90,0.00,,,0.00,Rainwise IP-100,2013-10-30 06:07:00,
2013-10-30 01:12:00,69.9,67.0,30.03,South,180,5.8,9.0,90,0.00,,,0.00,Rainwise IP-100,2013-10-30 06:12:00,
2013-10-30 01:17:00,69.9,67.0,30.03,SSE,157,5.8,11.0,90,0.00,,,0.00,Rainwise IP-100,2013-10-30 06:17:00,
2013-10-30 01:22:00,69.8,66.0,30.03,South,180,7.2,10.0,90,0.00,,,0.00,Rainwise IP-100,2013-10-30 06:22:00,
2013-10-30 01:27:00,69.8,66.0,30.02,SE,135,7.2,12.0,90,0.00,,,0.00,Rainwise IP-100,2013-10-30 06:27:00,
2013-10-30 01:32:00,69.7,66.0,30.02,SE,135,8.6,10.0,90,0.00,,,0.00,Rainwise IP-100,2013-10-30 06:32:00,
2013-10-30 01:37:00,69.7,66.0,30.02,ESE,112,4.9,11.0,90,0.00,,,0.00,Rainwise IP-100,2013-10-30 06:37:00,
2013-10-30 01:42:00,69.6,66.0,30.02,SSE,157,5.8,12.0,90,0.00,,,0.00,Rainwise IP-100,2013-10-30 06:42:00,
2013-10-30 01:47:00,69.6,66.0,30.02,SE,135,5.6,11.0,90,0.00,,,0.00,Rainwise IP-100,2013-10-30 06:47:00,
2013-10-30 01:52:00,69.6,66.0,30.02,SSE,157,4.7,12.0,90,0.00,,,0.00,Rainwise IP-100,2013-10-30 06:52:00,
2013-10-30 01:57:00,69.7,66.0,30.02,ESE,112,3.0,11.0,90,0.00,,,0.00,Rainwise IP-100,2013-10-30 06:57:00,
2013-10-30 02:02:00,69.7,66.0,30.02,SE,135,7.2,12.0,90,0.00,,,0.00,Rainwise IP-100,2013-10-30 07:02:00,
2013-10-30 02:07:00,69.7,66.0,30.02,ESE,112,11.2,11.2,90,0.00,,,0.00,Rainwise IP-100,2013-10-30 07:07:00,
2013-10-30 02:12:00,69.8,66.0,30.02,SE,135,4.7,14.0,90,0.00,,,0.00,Rainwise IP-100,2013-10-30 07:12:00,
2013-10-30 02:17:00,69.8,66.0,30.02,SE,135,3.3,11.0,90,0.00,,,0.00,Rainwise IP-100,2013-10-30 07:17:00,
2013-10-30 02:22:00,69.8,66.0,30.02,South,180,6.8,15.0,90,0.00,,,0.00,Rainwise IP-100,2013-10-30 07:22:00,
2013-10-30 02:27:00,69.8,66.0,30.02,SSE,157,7.5,13.0,90,0.00,,,0.00,Rainwise IP-100,2013-10-30 07:27:00,
2013-10-30 02:32:00,69.7,66.0,30.02,SE,135,3.3,11.0,90,0.00,,,0.00,Rainwise IP-100,2013-10-30 07:32:00,
2013-10-30 02:37:00,69.4,66.0,30.02,South,180,1.9,11.0,91,0.00,,,0.00,Rainwise IP-100,2013-10-30 07:37:00,
2013-10-30 02:42:00,69.2,66.0,30.02,ESE,112,4.2,11.0,91,0.00,,,0.00,Rainwise IP-100,2013-10-30 07:42:00,
2013-10-30 02:47:00,69.2,66.0,30.02,SE,135,5.8,10.0,92,0.00,,,0.00,Rainwise IP-100,2013-10-30 07:47:00,
2013-10-30 02:52:00,69.2,66.0,30.02,SSE,157,5.4,9.0,92,0.00,,,0.00,Rainwise IP-100,2013-10-30 07:52:00,
2013-10-30 02:57:00,69.1,66.0,30.02,SE,135,3.3,7.0,92,0.00,,,0.00,Rainwise IP-100,2013-10-30 07:57:00,
2013-10-30 03:02:00,69.1,66.0,30.02,SSE,157,3.5,9.0,93,0.00,,,0.00,Rainwise IP-100,2013-10-30 08:02:00,
2013-10-30 03:07:00,68.9,66.0,30.02,ESE,112,4.0,9.0,93,0.00,,,0.00,Rainwise IP-100,2013-10-30 08:07:00,
2013-10-30 03:12:00,68.8,66.0,30.02,East,90,2.8,7.0,93,0.00,,,0.00,Rainwise IP-100,2013-10-30 08:12:00,
2013-10-30 03:17:00,68.6,66.0,30.02,ESE,112,1.4,7.0,94,0.00,,,0.00,Rainwise IP-100,2013-10-30 08:17:00,
2013-10-30 03:22:00,68.4,67.0,30.01,SSE,157,2.8,5.0,95,0.00,,,0.00,Rainwise IP-100,2013-10-30 08:22:00,
2013-10-30 03:27:00,68.4,67.0,30.02,SSE,157,6.1,6.1,95,0.00,,,0.00,Rainwise IP-100,2013-10-30 08:27:00,
2013-10-30 03:32:00,68.3,66.0,30.02,SE,135,3.7,6.0,96,0.06,,,0.01,Rainwise IP-100,2013-10-30 08:32:00,
2013-10-30 03:37:00,68.3,66.0,30.02,SE,135,2.3,5.0,96,0.06,,,0.01,Rainwise IP-100,2013-10-30 08:37:00,
2013-10-30 03:42:00,68.2,66.0,30.02,East,90,4.0,6.0,96,0.00,,,0.01,Rainwise IP-100,2013-10-30 08:42:00,
2013-10-30 03:47:00,68.3,66.0,30.02,SSE,157,6.1,7.0,96,0.00,,,0.01,Rainwise IP-100,2013-10-30 08:47:00,
2013-10-30 03:52:00,68.3,66.0,30.01,ESE,112,4.2,8.0,96,0.00,,,0.01,Rainwise IP-100,2013-10-30 08:52:00,
2013-10-30 03:57:00,68.3,67.0,30.01,ESE,112,4.7,9.0,97,0.00,,,0.01,Rainwise IP-100,2013-10-30 08:57:00,
2013-10-30 04:02:00,68.4,67.0,30.00,SE,135,3.0,8.0,97,0.00,,,0.01,Rainwise IP-100,2013-10-30 09:02:00,
2013-10-30 04:07:00,68.4,67.0,30.01,East,90,2.8,6.0,97,0.00,,,0.01,Rainwise IP-100,2013-10-30 09:07:00,
2013-10-30 04:12:00,68.4,67.0,30.00,SE,135,2.1,9.0,97,0.00,,,0.01,Rainwise IP-100,2013-10-30 09:12:00,
2013-10-30 04:17:00,68.4,67.0,30.01,SSE,157,4.0,8.0,97,0.00,,,0.01,Rainwise IP-100,2013-10-30 09:17:00,
2013-10-30 04:22:00,68.5,67.0,30.01,ESE,112,5.1,9.0,97,0.00,,,0.01,Rainwise IP-100,2013-10-30 09:22:00,
2013-10-30 04:27:00,68.6,67.0,30.01,SSE,157,9.3,9.3,97,0.00,,,0.01,Rainwise IP-100,2013-10-30 09:27:00,
2013-10-30 04:32:00,68.6,67.0,30.00,ESE,112,5.6,10.0,97,0.00,,,0.01,Rainwise IP-100,2013-10-30 09:32:00,
2013-10-30 04:37:00,68.5,67.0,30.00,SSE,157,3.7,8.0,97,0.00,,,0.01,Rainwise IP-100,2013-10-30 09:37:00,
2013-10-30 04:42:00,68.5,67.0,30.00,SE,135,3.0,7.0,97,0.00,,,0.01,Rainwise IP-100,2013-10-30 09:42:00,
2013-10-30 04:47:00,68.5,67.0,29.99,SE,135,4.4,7.0,97,0.00,,,0.01,Rainwise IP-100,2013-10-30 09:47:00,
2013-10-30 04:52:00,68.4,67.0,30.00,South,180,3.0,6.0,97,0.00,,,0.01,Rainwise IP-100,2013-10-30 09:52:00,
2013-10-30 04:57:00,68.3,67.0,30.00,SSW,202,2.1,6.0,97,0.00,,,0.01,Rainwise IP-100,2013-10-30 09:57:00,
2013-10-30 05:02:00,68.4,67.0,30.00,SSE,157,2.3,6.0,97,0.00,,,0.01,Rainwise IP-100,2013-10-30 10:02:00,
2013-10-30 05:07:00,68.4,67.0,30.00,SSE,157,2.8,6.0,97,0.00,,,0.01,Rainwise IP-100,2013-10-30 10:07:00,
2013-10-30 05:12:00,68.4,67.0,30.00,ESE,112,0.0,4.0,97,0.00,,,0.01,Rainwise IP-100,2013-10-30 10:12:00,
2013-10-30 05:17:00,68.4,67.0,30.00,SSE,157,2.1,3.0,97,0.00,,,0.01,Rainwise IP-100,2013-10-30 10:17:00,
2013-10-30 05:22:00,68.4,67.0,29.99,SE,135,2.8,7.0,97,0.00,,,0.01,Rainwise IP-100,2013-10-30 10:22:00,
2013-10-30 05:27:00,68.4,67.0,29.98,SE,135,3.3,5.0,97,0.00,,,0.01,Rainwise IP-100,2013-10-30 10:27:00,
2013-10-30 05:32:00,68.4,67.0,29.99,SE,135,1.9,7.0,97,0.00,,,0.01,Rainwise IP-100,2013-10-30 10:32:00,
2013-10-30 05:37:00,68.3,67.0,29.99,SSE,157,0.0,3.0,97,0.00,,,0.01,Rainwise IP-100,2013-10-30 10:37:00,
2013-10-30 05:42:00,68.1,67.0,30.00,WSW,247,2.6,2.6,97,0.00,,,0.01,Rainwise IP-100,2013-10-30 10:42:00,
2013-10-30 05:47:00,68.1,67.0,30.00,SSE,157,1.2,3.0,97,0.00,,,0.01,Rainwise IP-100,2013-10-30 10:47:00,
2013-10-30 05:52:00,68.1,67.0,30.00,SSE,157,0.0,1.0,97,0.00,,,0.01,Rainwise IP-100,2013-10-30 10:52:00,
2013-10-30 05:57:00,68.0,67.0,30.00,ENE,67,1.6,2.0,97,0.00,,,0.01,Rainwise IP-100,2013-10-30 10:57:00,
2013-10-30 06:02:00,68.0,67.0,30.00,North,360,2.1,2.1,97,0.00,,,0.01,Rainwise IP-100,2013-10-30 11:02:00,
2013-10-30 06:07:00,67.8,66.0,30.01,North,360,0.0,2.0,97,0.00,,,0.01,Rainwise IP-100,2013-10-30 11:07:00,
2013-10-30 06:12:00,67.6,66.0,30.00,North,360,0.0,0.0,97,0.00,,,0.01,Rainwise IP-100,2013-10-30 11:12:00,
2013-10-30 06:17:00,67.3,66.0,30.01,North,360,0.0,0.0,97,0.00,,,0.01,Rainwise IP-100,2013-10-30 11:17:00,
2013-10-30 06:22:00,67.2,66.0,30.00,North,360,0.0,0.0,97,0.00,,,0.01,Rainwise IP-100,2013-10-30 11:22:00,
2013-10-30 06:27:00,67.3,66.0,30.00,East,90,1.9,3.0,97,0.00,,,0.01,Rainwise IP-100,2013-10-30 11:27:00,
2013-10-30 06:32:00,67.5,67.0,30.00,East,90,1.2,3.0,98,0.00,,,0.01,Rainwise IP-100,2013-10-30 11:32:00,
2013-10-30 06:37:00,67.6,67.0,30.00,East,90,2.1,3.0,98,0.00,,,0.01,Rainwise IP-100,2013-10-30 11:37:00,
2013-10-30 06:42:00,67.7,67.0,29.99,ENE,67,1.9,3.0,98,0.00,,,0.01,Rainwise IP-100,2013-10-30 11:42:00,
2013-10-30 06:47:00,67.7,67.0,29.98,ENE,67,2.1,3.0,98,0.00,,,0.01,Rainwise IP-100,2013-10-30 11:47:00,
2013-10-30 06:52:00,67.6,67.0,29.99,East,90,1.9,3.0,98,0.00,,,0.01,Rainwise IP-100,2013-10-30 11:52:00,
2013-10-30 06:57:00,67.6,67.0,29.98,ENE,67,0.0,3.0,98,0.00,,,0.01,Rainwise IP-100,2013-10-30 11:57:00,
2013-10-30 07:02:00,67.5,67.0,29.98,ESE,112,2.1,3.0,98,0.00,,,0.01,Rainwise IP-100,2013-10-30 12:02:00,
2013-10-30 07:07:00,67.4,67.0,29.98,ESE,112,0.0,3.0,98,0.00,,,0.01,Rainwise IP-100,2013-10-30 12:07:00,
2013-10-30 07:12:00,67.5,67.0,29.97,SE,135,1.6,4.0,98,0.00,,,0.01,Rainwise IP-100,2013-10-30 12:12:00,
2013-10-30 07:17:00,67.5,67.0,29.98,SSE,157,3.5,5.0,98,0.00,,,0.01,Rainwise IP-100,2013-10-30 12:17:00,
2013-10-30 07:22:00,67.6,67.0,29.98,SE,135,3.5,5.0,98,0.00,,,0.01,Rainwise IP-100,2013-10-30 12:22:00,
2013-10-30 07:27:00,67.7,67.0,29.98,ESE,112,5.1,6.0,98,0.00,,,0.01,Rainwise IP-100,2013-10-30 12:27:00,
2013-10-30 07:32:00,67.9,67.0,29.97,ESE,112,4.4,7.0,99,0.00,,,0.01,Rainwise IP-100,2013-10-30 12:32:00,
2013-10-30 07:37:00,68.0,67.0,29.97,ESE,112,2.6,7.0,99,0.00,,,0.01,Rainwise IP-100,2013-10-30 12:37:00,
2013-10-30 07:42:00,68.0,67.0,29.97,ESE,112,4.0,7.0,99,0.00,,,0.01,Rainwise IP-100,2013-10-30 12:42:00,
2013-10-30 07:47:00,68.0,67.0,29.97,East,90,2.6,6.0,99,0.00,,,0.01,Rainwise IP-100,2013-10-30 12:47:00,
2013-10-30 07:52:00,68.0,67.0,29.97,ESE,112,2.8,7.0,99,0.00,,,0.01,Rainwise IP-100,2013-10-30 12:52:00,
2013-10-30 07:57:00,68.1,67.0,29.96,East,90,3.7,9.0,99,0.00,,,0.01,Rainwise IP-100,2013-10-30 12:57:00,
2013-10-30 08:02:00,68.1,67.0,29.96,ENE,67,3.7,9.0,99,0.00,,,0.01,Rainwise IP-100,2013-10-30 13:02:00,
2013-10-30 08:07:00,68.1,67.0,29.96,East,90,4.4,8.0,99,0.00,,,0.01,Rainwise IP-100,2013-10-30 13:07:00,
2013-10-30 08:12:00,68.3,67.0,29.96,SSE,157,4.2,7.0,99,0.00,,,0.01,Rainwise IP-100,2013-10-30 13:12:00,
2013-10-30 08:17:00,68.4,68.0,29.97,SSE,157,5.8,8.0,99,0.00,,,0.01,Rainwise IP-100,2013-10-30 13:17:00,
2013-10-30 08:22:00,68.4,68.0,29.97,ESE,112,2.1,6.0,99,0.00,,,0.01,Rainwise IP-100,2013-10-30 13:22:00,
2013-10-30 08:27:00,68.6,68.0,29.97,ESE,112,2.8,5.0,99,0.00,,,0.01,Rainwise IP-100,2013-10-30 13:27:00,
2013-10-30 08:32:00,68.7,68.0,29.96,SE,135,4.2,8.0,99,0.00,,,0.01,Rainwise IP-100,2013-10-30 13:32:00,
2013-10-30 08:37:00,68.8,68.0,29.96,SSE,157,2.8,9.0,99,0.00,,,0.01,Rainwise IP-100,2013-10-30 13:37:00,
2013-10-30 08:42:00,68.9,68.0,29.96,ESE,112,3.3,11.0,99,0.00,,,0.01,Rainwise IP-100,2013-10-30 13:42:00,
2013-10-30 08:47:00,68.9,68.0,29.96,SSE,157,4.2,7.0,99,0.00,,,0.01,Rainwise IP-100,2013-10-30 13:47:00,
2013-10-30 08:52:00,69.0,68.0,29.97,SSW,202,2.8,8.0,99,0.00,,,0.01,Rainwise IP-100,2013-10-30 13:52:00,
2013-10-30 08:57:00,69.2,69.0,29.97,ESE,112,2.8,11.0,99,0.00,,,0.01,Rainwise IP-100,2013-10-30 13:57:00,
2013-10-30 09:02:00,69.4,69.0,29.96,ESE,112,7.9,8.0,99,0.00,,,0.01,Rainwise IP-100,2013-10-30 14:02:00,
2013-10-30 09:07:00,69.5,69.0,29.96,ESE,112,6.3,10.0,99,0.00,,,0.01,Rainwise IP-100,2013-10-30 14:07:00,
2013-10-30 09:12:00,69.7,69.0,29.97,SE,135,6.3,9.0,99,0.00,,,0.01,Rainwise IP-100,2013-10-30 14:12:00,
2013-10-30 09:17:00,69.9,69.0,29.97,ESE,112,2.3,9.0,99,0.00,,,0.01,Rainwise IP-100,2013-10-30 14:17:00,
2013-10-30 09:22:00,70.1,69.0,29.97,SE,135,4.9,9.0,99,0.00,,,0.01,Rainwise IP-100,2013-10-30 14:22:00,
2013-10-30 09:27:00,70.2,69.0,29.98,ESE,112,5.8,8.0,99,0.00,,,0.01,Rainwise IP-100,2013-10-30 14:27:00,
2013-10-30 09:32:00,70.3,69.0,29.98,SSE,157,4.4,8.0,99,0.00,,,0.01,Rainwise IP-100,2013-10-30 14:32:00,
2013-10-30 09:37:00,70.5,70.0,29.97,SSE,157,1.9,8.0,99,0.00,,,0.01,Rainwise IP-100,2013-10-30 14:37:00,
2013-10-30 09:42:00,70.6,70.0,29.98,SSE,157,4.4,7.0,98,0.00,,,0.01,Rainwise IP-100,2013-10-30 14:42:00,
2013-10-30 09:47:00,70.7,70.0,29.97,SSE,157,5.1,10.0,98,0.00,,,0.01,Rainwise IP-100,2013-10-30 14:47:00,
2013-10-30 09:52:00,70.9,70.0,29.97,South,180,4.7,9.0,98,0.00,,,0.01,Rainwise IP-100,2013-10-30 14:52:00,
2013-10-30 09:57:00,71.2,70.0,29.98,SSW,202,5.6,10.0,98,0.00,,,0.01,Rainwise IP-100,2013-10-30 14:57:00,
2013-10-30 10:02:00,71.5,71.0,29.97,SSE,157,6.1,8.0,97,0.00,,,0.01,Rainwise IP-100,2013-10-30 15:02:00,
2013-10-30 10:07:00,71.7,71.0,29.97,SSE,157,3.3,9.0,97,0.00,,,0.01,Rainwise IP-100,2013-10-30 15:07:00,
2013-10-30 10:12:00,72.0,71.0,29.97,SSE,157,4.4,11.0,96,0.00,,,0.01,Rainwise IP-100,2013-10-30 15:12:00,
2013-10-30 10:17:00,72.3,71.0,29.97,SE,135,4.0,8.0,96,0.00,,,0.01,Rainwise IP-100,2013-10-30 15:17:00,
2013-10-30 10:22:00,72.5,71.0,29.97,SSE,157,2.6,7.0,95,0.00,,,0.01,Rainwise IP-100,2013-10-30 15:22:00,
2013-10-30 10:27:00,72.6,71.0,29.98,SE,135,4.2,8.0,95,0.00,,,0.01,Rainwise IP-100,2013-10-30 15:27:00,
2013-10-30 10:32:00,72.7,71.0,29.98,South,180,6.1,9.0,94,0.00,,,0.01,Rainwise IP-100,2013-10-30 15:32:00,
2013-10-30 10:37:00,73.0,71.0,29.98,SSE,157,4.7,9.0,94,0.00,,,0.01,Rainwise IP-100,2013-10-30 15:37:00,
2013-10-30 10:42:00,73.2,71.0,29.99,SSE,157,6.8,12.0,94,0.00,,,0.01,Rainwise IP-100,2013-10-30 15:42:00,
2013-10-30 10:47:00,73.3,71.0,29.98,SSE,157,4.4,11.0,93,0.00,,,0.01,Rainwise IP-100,2013-10-30 15:47:00,
2013-10-30 10:52:00,73.4,71.0,29.98,South,180,4.7,9.0,93,0.00,,,0.01,Rainwise IP-100,2013-10-30 15:52:00,
2013-10-30 10:57:00,73.4,71.0,29.98,SSE,157,2.1,10.0,93,0.00,,,0.01,Rainwise IP-100,2013-10-30 15:57:00,
2013-10-30 11:02:00,73.4,71.0,29.97,SSW,202,4.0,6.0,93,0.00,,,0.01,Rainwise IP-100,2013-10-30 16:02:00,
2013-10-30 11:07:00,73.5,71.0,29.98,SE,135,4.9,6.0,92,0.00,,,0.01,Rainwise IP-100,2013-10-30 16:07:00,
2013-10-30 11:12:00,73.6,71.0,29.98,SSE,157,4.7,10.0,92,0.00,,,0.01,Rainwise IP-100,2013-10-30 16:12:00,
2013-10-30 11:17:00,73.7,71.0,29.99,SSE,157,4.2,10.0,92,0.00,,,0.01,Rainwise IP-100,2013-10-30 16:17:00,
2013-10-30 11:22:00,73.9,71.0,29.99,South,180,8.2,8.2,91,0.00,,,0.01,Rainwise IP-100,2013-10-30 16:22:00,
2013-10-30 11:27:00,74.0,71.0,29.99,SSW,202,6.8,10.0,91,0.00,,,0.01,Rainwise IP-100,2013-10-30 16:27:00,
2013-10-30 11:32:00,74.2,71.0,29.99,SSW,202,3.5,11.0,90,0.00,,,0.01,Rainwise IP-100,2013-10-30 16:32:00,
2013-10-30 11:37:00,74.3,71.0,29.99,SSE,157,6.5,11.0,90,0.00,,,0.01,Rainwise IP-100,2013-10-30 16:37:00,
2013-10-30 11:42:00,74.3,71.0,29.99,SSE,157,5.8,10.0,90,0.00,,,0.01,Rainwise IP-100,2013-10-30 16:42:00,
2013-10-30 11:47:00,74.3,71.0,29.99,SSW,202,4.7,9.0,89,0.00,,,0.01,Rainwise IP-100,2013-10-30 16:47:00,
2013-10-30 11:52:00,74.4,71.0,29.99,SSW,202,2.1,8.0,89,0.00,,,0.01,Rainwise IP-100,2013-10-30 16:52:00,
2013-10-30 11:57:00,74.5,71.0,29.99,SSW,202,0.0,11.0,89,0.00,,,0.01,Rainwise IP-100,2013-10-30 16:57:00,
2013-10-30 12:02:00,74.6,71.0,29.98,South,180,4.9,9.0,89,0.00,,,0.01,Rainwise IP-100,2013-10-30 17:02:00,
2013-10-30 12:07:00,74.6,71.0,29.98,SSW,202,4.0,10.0,88,0.00,,,0.01,Rainwise IP-100,2013-10-30 17:07:00,
2013-10-30 12:12:00,74.6,71.0,29.98,SSW,202,4.2,8.0,88,0.00,,,0.01,Rainwise IP-100,2013-10-30 17:12:00,
2013-10-30 12:17:00,74.6,71.0,29.98,SSE,157,4.4,8.0,88,0.00,,,0.01,Rainwise IP-100,2013-10-30 17:17:00,
2013-10-30 12:22:00,74.5,71.0,29.98,South,180,3.3,8.0,88,0.00,,,0.01,Rainwise IP-100,2013-10-30 17:22:00,
2013-10-30 12:27:00,74.4,71.0,29.98,South,180,4.9,8.0,88,0.00,,,0.01,Rainwise IP-100,2013-10-30 17:27:00,
2013-10-30 12:32:00,74.3,71.0,29.98,SSE,157,3.7,6.0,88,0.00,,,0.01,Rainwise IP-100,2013-10-30 17:32:00,
2013-10-30 12:37:00,74.2,71.0,29.97,South,180,1.2,7.0,89,0.00,,,0.01,Rainwise IP-100,2013-10-30 17:37:00,
2013-10-30 12:42:00,74.0,71.0,29.97,SSE,157,4.7,8.0,89,0.00,,,0.01,Rainwise IP-100,2013-10-30 17:42:00,
2013-10-30 12:47:00,73.8,71.0,29.97,SSW,202,2.3,6.0,90,0.00,,,0.01,Rainwise IP-100,2013-10-30 17:47:00,
2013-10-30 12:52:00,73.7,71.0,29.98,SW,225,3.3,5.0,90,0.00,,,0.01,Rainwise IP-100,2013-10-30 17:52:00,
2013-10-30 12:57:00,73.6,71.0,29.97,SW,225,2.6,4.0,91,0.00,,,0.01,Rainwise IP-100,2013-10-30 17:57:00,
2013-10-30 13:02:00,73.5,71.0,29.97,SSW,202,2.3,4.0,91,0.00,,,0.01,Rainwise IP-100,2013-10-30 18:02:00,
2013-10-30 13:07:00,73.5,71.0,29.98,SSW,202,4.4,7.0,92,0.00,,,0.01,Rainwise IP-100,2013-10-30 18:07:00,
2013-10-30 13:12:00,73.4,71.0,29.97,SW,225,1.9,6.0,92,0.00,,,0.01,Rainwise IP-100,2013-10-30 18:12:00,
2013-10-30 13:17:00,73.4,71.0,29.97,SW,225,2.1,7.0,92,0.00,,,0.01,Rainwise IP-100,2013-10-30 18:17:00,
2013-10-30 13:22:00,73.4,71.0,29.98,SW,225,4.2,6.0,92,0.00,,,0.01,Rainwise IP-100,2013-10-30 18:22:00,
2013-10-30 13:27:00,73.4,71.0,29.97,WSW,247,2.1,7.0,92,0.00,,,0.01,Rainwise IP-100,2013-10-30 18:27:00,
2013-10-30 13:32:00,73.4,71.0,29.97,SW,225,2.8,7.0,92,0.00,,,0.01,Rainwise IP-100,2013-10-30 18:32:00,
2013-10-30 13:37:00,73.5,71.0,29.97,SSW,202,3.7,6.0,91,0.00,,,0.01,Rainwise IP-100,2013-10-30 18:37:00,
2013-10-30 13:42:00,73.7,71.0,29.97,SSW,202,2.3,7.0,91,0.00,,,0.01,Rainwise IP-100,2013-10-30 18:42:00,
2013-10-30 13:47:00,73.8,71.0,29.97,SSW,202,2.3,6.0,90,0.00,,,0.01,Rainwise IP-100,2013-10-30 18:47:00,
2013-10-30 13:52:00,73.9,71.0,29.97,WSW,247,4.7,4.7,90,0.00,,,0.01,Rainwise IP-100,2013-10-30 18:52:00,
2013-10-30 13:57:00,73.9,71.0,29.97,WSW,247,3.7,6.0,90,0.00,,,0.01,Rainwise IP-100,2013-10-30 18:57:00,
2013-10-30 14:02:00,73.8,71.0,29.96,West,270,1.2,6.0,90,0.00,,,0.01,Rainwise IP-100,2013-10-30 19:02:00,
2013-10-30 14:07:00,73.6,71.0,29.95,SSW,202,3.7,3.7,90,0.00,,,0.01,Rainwise IP-100,2013-10-30 19:07:00,
2013-10-30 14:12:00,73.5,71.0,29.95,WSW,247,1.2,4.0,91,0.00,,,0.01,Rainwise IP-100,2013-10-30 19:12:00,
2013-10-30 14:17:00,73.4,71.0,29.94,WSW,247,0.0,2.0,91,0.00,,,0.01,Rainwise IP-100,2013-10-30 19:17:00,
2013-10-30 14:22:00,73.4,71.0,29.94,SSW,202,2.1,2.1,92,0.00,,,0.01,Rainwise IP-100,2013-10-30 19:22:00,
2013-10-30 14:27:00,73.4,71.0,29.94,South,180,3.0,3.0,92,0.00,,,0.01,Rainwise IP-100,2013-10-30 19:27:00,
2013-10-30 14:32:00,73.4,71.0,29.94,SE,135,2.3,4.0,92,0.00,,,0.01,Rainwise IP-100,2013-10-30 19:32:00,
2013-10-30 14:37:00,73.5,71.0,29.94,SSW,202,4.0,4.0,92,0.00,,,0.01,Rainwise IP-100,2013-10-30 19:37:00,
2013-10-30 14:42:00,73.5,71.0,29.94,South,180,3.3,4.0,92,0.00,,,0.01,Rainwise IP-100,2013-10-30 19:42:00,
2013-10-30 14:47:00,73.6,71.0,29.93,SE,135,1.9,4.0,92,0.00,,,0.01,Rainwise IP-100,2013-10-30 19:47:00,
2013-10-30 14:52:00,73.5,71.0,29.92,SE,135,3.7,5.0,92,0.00,,,0.01,Rainwise IP-100,2013-10-30 19:52:00,
2013-10-30 14:57:00,73.6,71.0,29.92,SSE,157,4.2,5.0,93,0.00,,,0.01,Rainwise IP-100,2013-10-30 19:57:00,
2013-10-30 15:02:00,73.8,71.0,29.92,SSE,157,3.7,5.0,93,0.00,,,0.01,Rainwise IP-100,2013-10-30 20:02:00,
2013-10-30 15:07:00,74.0,71.0,29.92,SSE,157,2.8,7.0,92,0.00,,,0.01,Rainwise IP-100,2013-10-30 20:07:00,
2013-10-30 15:12:00,74.3,72.0,29.92,SSE,157,5.4,7.0,92,0.00,,,0.01,Rainwise IP-100,2013-10-30 20:12:00,
2013-10-30 15:17:00,74.5,72.0,29.92,South,180,2.3,7.0,91,0.00,,,0.01,Rainwise IP-100,2013-10-30 20:17:00,
2013-10-30 15:22:00,74.7,71.0,29.92,South,180,4.2,8.0,90,0.00,,,0.01,Rainwise IP-100,2013-10-30 20:22:00,
2013-10-30 15:27:00,75.0,71.0,29.91,SSW,202,4.0,7.0,88,0.00,,,0.01,Rainwise IP-100,2013-10-30 20:27:00,
2013-10-30 15:32:00,75.4,71.0,29.91,SW,225,4.2,7.0,87,0.00,,,0.01,Rainwise IP-100,2013-10-30 20:32:00,
2013-10-30 15:37:00,75.7,71.0,29.91,SSE,157,4.4,8.0,86,0.00,,,0.01,Rainwise IP-100,2013-10-30 20:37:00,
2013-10-30 15:42:00,75.8,71.0,29.90,SE,135,6.3,9.0,85,0.00,,,0.01,Rainwise IP-100,2013-10-30 20:42:00,
2013-10-30 15:47:00,75.9,71.0,29.90,SSE,157,1.2,8.0,84,0.00,,,0.01,Rainwise IP-100,2013-10-30 20:47:00,
2013-10-30 15:52:00,76.1,70.0,29.90,WSW,247,5.1,7.0,83,0.00,,,0.01,Rainwise IP-100,2013-10-30 20:52:00,
2013-10-30 15:57:00,76.2,71.0,29.90,SW,225,1.4,10.0,83,0.00,,,0.01,Rainwise IP-100,2013-10-30 20:57:00,
2013-10-30 16:02:00,76.0,70.0,29.89,SE,135,6.3,8.0,83,0.00,,,0.01,Rainwise IP-100,2013-10-30 21:02:00,
2013-10-30 16:07:00,75.7,70.0,29.89,SSE,157,4.4,7.0,83,0.00,,,0.01,Rainwise IP-100,2013-10-30 21:07:00,
2013-10-30 16:12:00,75.7,70.0,29.89,SSW,202,1.9,5.0,84,0.00,,,0.01,Rainwise IP-100,2013-10-30 21:12:00,
2013-10-30 16:17:00,75.7,70.0,29.88,SSE,157,3.7,5.0,84,0.00,,,0.01,Rainwise IP-100,2013-10-30 21:17:00,
2013-10-30 16:22:00,75.7,70.0,29.89,SE,135,1.6,4.0,84,0.00,,,0.01,Rainwise IP-100,2013-10-30 21:22:00,
2013-10-30 16:27:00,75.9,70.0,29.89,WSW,247,4.2,6.0,83,0.00,,,0.01,Rainwise IP-100,2013-10-30 21:27:00,
2013-10-30 16:32:00,76.1,70.0,29.89,SW,225,2.6,8.0,83,0.00,,,0.01,Rainwise IP-100,2013-10-30 21:32:00,
2013-10-30 16:37:00,76.1,70.0,29.89,SSE,157,1.4,5.0,82,0.00,,,0.01,Rainwise IP-100,2013-10-30 21:37:00,
2013-10-30 16:42:00,76.1,70.0,29.89,SSE,157,3.3,6.0,82,0.00,,,0.01,Rainwise IP-100,2013-10-30 21:42:00,
2013-10-30 16:47:00,76.1,70.0,29.88,SSE,157,2.8,7.0,82,0.00,,,0.01,Rainwise IP-100,2013-10-30 21:47:00,
2013-10-30 16:52:00,76.1,70.0,29.87,SSW,202,3.3,5.0,82,0.00,,,0.01,Rainwise IP-100,2013-10-30 21:52:00,
2013-10-30 16:57:00,76.2,70.0,29.88,WSW,247,3.0,7.0,81,0.00,,,0.01,Rainwise IP-100,2013-10-30 21:57:00,
2013-10-30 17:02:00,76.2,70.0,29.89,SSW,202,1.9,6.0,81,0.00,,,0.01,Rainwise IP-100,2013-10-30 22:02:00,
2013-10-30 17:07:00,76.0,69.0,29.88,SW,225,2.1,8.0,81,0.00,,,0.01,Rainwise IP-100,2013-10-30 22:07:00,
2013-10-30 17:12:00,75.9,69.0,29.88,SSE,157,3.0,4.0,81,0.00,,,0.01,Rainwise IP-100,2013-10-30 22:12:00,
2013-10-30 17:17:00,75.8,69.0,29.88,SSW,202,1.4,4.0,82,0.00,,,0.01,Rainwise IP-100,2013-10-30 22:17:00,
2013-10-30 17:22:00,75.8,69.0,29.87,SSW,202,4.0,4.0,82,0.00,,,0.01,Rainwise IP-100,2013-10-30 22:22:00,
2013-10-30 17:27:00,75.8,69.0,29.87,SSE,157,1.4,5.0,82,0.00,,,0.01,Rainwise IP-100,2013-10-30 22:27:00,
2013-10-30 17:32:00,75.6,69.0,29.87,South,180,3.3,4.0,82,0.00,,,0.01,Rainwise IP-100,2013-10-30 22:32:00,
2013-10-30 17:37:00,75.6,70.0,29.87,South,180,2.3,5.0,83,0.00,,,0.01,Rainwise IP-100,2013-10-30 22:37:00,
2013-10-30 17:42:00,75.6,70.0,29.87,ESE,112,4.0,7.0,83,0.00,,,0.01,Rainwise IP-100,2013-10-30 22:42:00,
2013-10-30 17:47:00,75.4,70.0,29.86,SE,135,2.1,6.0,84,0.00,,,0.01,Rainwise IP-100,2013-10-30 22:47:00,
2013-10-30 17:52:00,75.0,70.0,29.87,SE,135,3.3,5.0,84,0.00,,,0.01,Rainwise IP-100,2013-10-30 22:52:00,
2013-10-30 17:57:00,74.8,70.0,29.87,SE,135,1.9,4.0,85,0.00,,,0.01,Rainwise IP-100,2013-10-30 22:57:00,
2013-10-30 18:02:00,74.6,70.0,29.88,South,180,2.3,4.0,85,0.00,,,0.01,Rainwise IP-100,2013-10-30 23:02:00,
2013-10-30 18:07:00,74.5,70.0,29.88,SSW,202,1.4,3.0,86,0.00,,,0.01,Rainwise IP-100,2013-10-30 23:07:00,
2013-10-30 18:12:00,74.3,70.0,29.88,SSW,202,1.4,2.0,86,0.00,,,0.01,Rainwise IP-100,2013-10-30 23:12:00,
2013-10-30 18:17:00,74.1,70.0,29.88,SE,135,2.1,3.0,87,0.00,,,0.01,Rainwise IP-100,2013-10-30 23:17:00,
2013-10-30 18:22:00,73.7,70.0,29.88,SE,135,1.6,2.0,88,0.00,,,0.01,Rainwise IP-100,2013-10-30 23:22:00,
2013-10-30 18:27:00,73.4,69.0,29.88,SE,135,1.9,3.0,88,0.00,,,0.01,Rainwise IP-100,2013-10-30 23:27:00,
2013-10-30 18:32:00,73.2,70.0,29.88,SSE,157,3.0,4.0,89,0.00,,,0.01,Rainwise IP-100,2013-10-30 23:32:00,
2013-10-30 18:37:00,73.0,70.0,29.88,South,180,0.0,3.0,90,0.00,,,0.01,Rainwise IP-100,2013-10-30 23:37:00,
2013-10-30 18:42:00,72.9,70.0,29.88,WSW,247,1.9,2.0,90,0.00,,,0.01,Rainwise IP-100,2013-10-30 23:42:00,
2013-10-30 18:47:00,72.8,69.0,29.89,West,270,2.6,3.0,90,0.00,,,0.01,Rainwise IP-100,2013-10-30 23:47:00,
2013-10-30 18:52:00,72.7,70.0,29.89,WSW,247,1.2,4.0,91,0.00,,,0.01,Rainwise IP-100,2013-10-30 23:52:00,
2013-10-30 18:57:00,72.6,70.0,29.89,West,270,2.1,2.1,91,0.00,,,0.01,Rainwise IP-100,2013-10-30 23:57:00,
2013-10-30 19:02:00,72.5,70.0,29.89,West,270,1.9,2.0,91,0.00,,,0.01,Rainwise IP-100,2013-10-31 00:02:00,
2013-10-30 19:07:00,72.4,69.0,29.90,West,270,0.0,2.0,91,0.00,,,0.01,Rainwise IP-100,2013-10-31 00:07:00,
2013-10-30 19:08:00,72.3,69.0,29.89,West,270,0.0,2.0,91,0.00,,,0.01,Rainwise IP-100,2013-10-31 00:08:00,
2013-10-30 19:13:00,72.2,70.0,29.90,West,270,0.0,1.0,92,0.00,,,0.01,Rainwise IP-100,2013-10-31 00:13:00,
2013-10-30 19:18:00,72.1,69.0,29.89,West,270,0.0,0.0,92,0.00,,,0.01,Rainwise IP-100,2013-10-31 00:18:00,
2013-10-30 19:23:00,72.0,69.0,29.89,West,270,0.0,0.0,92,0.00,,,0.01,Rainwise IP-100,2013-10-31 00:23:00,
2013-10-30 19:28:00,72.0,69.0,29.89,West,270,0.0,0.0,92,0.00,,,0.01,Rainwise IP-100,2013-10-31 00:28:00,
2013-10-30 19:33:00,71.8,69.0,29.89,WSW,247,0.0,0.0,93,0.00,,,0.01,Rainwise IP-100,2013-10-31 00:33:00,
2013-10-30 19:38:00,71.7,69.0,29.89,WSW,247,0.0,0.0,93,0.00,,,0.01,Rainwise IP-100,2013-10-31 00:38:00,
2013-10-30 19:43:00,71.8,69.0,29.89,ESE,112,1.4,1.4,92,0.00,,,0.01,Rainwise IP-100,2013-10-31 00:43:00,
2013-10-30 19:48:00,72.0,69.0,29.89,ENE,67,0.0,2.0,92,0.00,,,0.01,Rainwise IP-100,2013-10-31 00:48:00,
2013-10-30 19:53:00,71.8,69.0,29.88,ENE,67,0.0,2.0,92,0.00,,,0.01,Rainwise IP-100,2013-10-31 00:53:00,
2013-10-30 19:58:00,71.5,69.0,29.88,ESE,112,0.0,3.0,92,0.00,,,0.01,Rainwise IP-100,2013-10-31 00:58:00,
2013-10-30 20:03:00,71.5,69.0,29.89,ESE,112,0.0,2.0,92,0.00,,,0.01,Rainwise IP-100,2013-10-31 01:03:00,
2013-10-30 20:08:00,71.4,69.0,29.88,ENE,67,0.0,3.0,93,0.00,,,0.01,Rainwise IP-100,2013-10-31 01:08:00,
2013-10-30 20:13:00,71.4,69.0,29.89,WNW,292,3.5,3.5,93,0.00,,,0.01,Rainwise IP-100,2013-10-31 01:13:00,
2013-10-30 20:18:00,71.3,69.0,29.89,WSW,247,3.0,4.0,93,0.00,,,0.01,Rainwise IP-100,2013-10-31 01:18:00,
2013-10-30 20:23:00,71.4,69.0,29.89,SSE,157,1.9,3.0,93,0.00,,,0.01,Rainwise IP-100,2013-10-31 01:23:00,
2013-10-30 20:28:00,71.4,69.0,29.89,ENE,67,1.9,2.0,93,0.00,,,0.01,Rainwise IP-100,2013-10-31 01:28:00,
2013-10-30 20:33:00,71.4,69.0,29.89,NNW,337,0.0,2.0,93,0.00,,,0.01,Rainwise IP-100,2013-10-31 01:33:00,
2013-10-30 20:38:00,71.3,69.0,29.89,NNW,337,0.0,1.0,93,0.00,,,0.01,Rainwise IP-100,2013-10-31 01:38:00,
2013-10-30 20:43:00,71.2,69.0,29.90,WNW,292,0.0,3.0,93,0.00,,,0.01,Rainwise IP-100,2013-10-31 01:43:00,
2013-10-30 20:48:00,71.1,69.0,29.90,WNW,292,0.0,1.0,93,0.00,,,0.01,Rainwise IP-100,2013-10-31 01:48:00,
2013-10-30 20:53:00,71.1,69.0,29.89,East,90,2.6,0.0,93,0.00,,,0.01,Rainwise IP-100,2013-10-31 01:53:00,
2013-10-30 20:58:00,71.0,69.0,29.89,East,90,1.9,2.0,93,0.00,,,0.01,Rainwise IP-100,2013-10-31 01:58:00,
2013-10-30 21:03:00,71.0,69.0,29.88,NW,315,1.2,3.0,93,0.00,,,0.01,Rainwise IP-100,2013-10-31 02:03:00,
2013-10-30 21:08:00,71.0,69.0,29.88,ENE,67,1.9,1.9,93,0.00,,,0.01,Rainwise IP-100,2013-10-31 02:08:00,
2013-10-30 21:13:00,70.6,68.0,29.87,East,90,1.6,3.0,93,0.00,,,0.01,Rainwise IP-100,2013-10-31 02:13:00,
2013-10-30 21:18:00,70.3,68.0,29.88,NW,315,1.6,2.0,94,0.00,,,0.01,Rainwise IP-100,2013-10-31 02:18:00,
2013-10-30 21:23:00,70.2,68.0,29.88,WNW,292,1.6,3.0,94,0.00,,,0.01,Rainwise IP-100,2013-10-31 02:23:00,
2013-10-30 21:28:00,70.0,68.0,29.88,WNW,292,0.0,2.0,94,0.00,,,0.01,Rainwise IP-100,2013-10-31 02:28:00,
2013-10-30 21:33:00,69.9,68.0,29.87,WNW,292,0.0,0.0,95,0.00,,,0.01,Rainwise IP-100,2013-10-31 02:33:00,
2013-10-30 21:38:00,69.9,68.0,29.88,WNW,292,1.9,2.0,95,0.00,,,0.01,Rainwise IP-100,2013-10-31 02:38:00,
2013-10-30 21:43:00,69.8,68.0,29.87,WNW,292,0.0,2.0,95,0.00,,,0.01,Rainwise IP-100,2013-10-31 02:43:00,
2013-10-30 21:48:00,69.9,68.0,29.87,WNW,292,0.0,0.0,95,0.00,,,0.01,Rainwise IP-100,2013-10-31 02:48:00,
2013-10-30 21:53:00,70.0,68.0,29.86,WNW,292,1.4,2.0,95,0.00,,,0.01,Rainwise IP-100,2013-10-31 02:53:00,
2013-10-30 21:58:00,69.8,68.0,29.86,WNW,292,0.0,1.0,94,0.00,,,0.01,Rainwise IP-100,2013-10-31 02:58:00,
2013-10-30 22:00:00,69.6,68.0,29.86,WNW,292,0.0,0.0,94,0.00,,,0.01,Rainwise IP-100,2013-10-31 03:00:00,
2013-10-30 22:05:00,69.0,67.0,29.86,WNW,292,1.6,2.0,94,0.00,,,0.01,Rainwise IP-100,2013-10-31 03:05:00,
2013-10-30 22:10:00,69.0,67.0,29.86,WNW,292,0.0,2.0,95,0.00,,,0.01,Rainwise IP-100,2013-10-31 03:10:00,
2013-10-30 22:15:00,69.0,67.0,29.86,WNW,292,0.0,0.0,95,0.00,,,0.01,Rainwise IP-100,2013-10-31 03:15:00,
2013-10-30 22:20:00,68.6,67.0,29.86,WNW,292,0.0,0.0,95,0.00,,,0.01,Rainwise IP-100,2013-10-31 03:20:00,
2013-10-30 22:25:00,68.5,67.0,29.86,WNW,292,0.0,0.0,95,0.00,,,0.01,Rainwise IP-100,2013-10-31 03:25:00,
2013-10-30 22:30:00,68.6,67.0,29.86,WNW,292,0.0,0.0,95,0.00,,,0.01,Rainwise IP-100,2013-10-31 03:30:00,
2013-10-30 22:35:00,68.3,66.0,29.87,WNW,292,0.0,1.0,96,0.00,,,0.01,Rainwise IP-100,2013-10-31 03:35:00,
2013-10-30 22:40:00,67.9,66.0,29.87,WNW,292,0.0,0.0,96,0.00,,,0.01,Rainwise IP-100,2013-10-31 03:40:00,
2013-10-30 22:45:00,67.5,66.0,29.87,WNW,292,0.0,0.0,96,0.00,,,0.01,Rainwise IP-100,2013-10-31 03:45:00,
2013-10-30 22:50:00,67.4,66.0,29.86,WNW,292,0.0,0.0,96,0.00,,,0.01,Rainwise IP-100,2013-10-31 03:50:00,
2013-10-30 22:55:00,67.2,66.0,29.86,WNW,292,0.0,0.0,96,0.00,,,0.01,Rainwise IP-100,2013-10-31 03:55:00,
2013-10-30 23:00:00,67.2,66.0,29.87,WNW,292,0.0,0.0,97,0.00,,,0.01,Rainwise IP-100,2013-10-31 04:00:00,
2013-10-30 23:01:00,67.3,66.0,29.87,WNW,292,0.0,0.0,97,0.00,,,0.01,Rainwise IP-100,2013-10-31 04:01:00,
2013-10-30 23:02:00,67.3,66.0,29.87,WNW,292,0.0,0.0,97,0.00,,,0.01,Rainwise IP-100,2013-10-31 04:02:00,
2013-10-30 23:07:00,67.8,66.0,29.87,ESE,112,2.3,2.3,97,0.00,,,0.01,Rainwise IP-100,2013-10-31 04:07:00,
2013-10-30 23:12:00,67.8,66.0,29.86,SSE,157,1.6,2.0,97,0.00,,,0.01,Rainwise IP-100,2013-10-31 04:12:00,
2013-10-30 23:17:00,67.7,67.0,29.86,ESE,112,0.0,2.0,98,0.00,,,0.01,Rainwise IP-100,2013-10-31 04:17:00,
2013-10-30 23:22:00,67.6,67.0,29.85,SSE,157,2.1,3.0,98,0.00,,,0.01,Rainwise IP-100,2013-10-31 04:22:00,
2013-10-30 23:27:00,67.5,67.0,29.85,SE,135,1.2,2.0,98,0.00,,,0.01,Rainwise IP-100,2013-10-31 04:27:00,
2013-10-30 23:32:00,67.5,67.0,29.85,SSE,157,1.4,3.0,98,0.00,,,0.01,Rainwise IP-100,2013-10-31 04:32:00,
2013-10-30 23:37:00,67.7,67.0,29.84,ESE,112,2.3,3.0,98,0.00,,,0.01,Rainwise IP-100,2013-10-31 04:37:00,
2013-10-30 23:42:00,67.8,67.0,29.84,ESE,112,2.3,4.0,99,0.00,,,0.01,Rainwise IP-100,2013-10-31 04:42:00,
2013-10-30 23:47:00,67.8,67.0,29.85,ESE,112,2.3,4.0,99,0.00,,,0.01,Rainwise IP-100,2013-10-31 04:47:00,
2013-10-30 23:52:00,67.7,67.0,29.84,SSW,202,1.9,3.0,99,0.00,,,0.01,Rainwise IP-100,2013-10-31 04:52:00,
2013-10-30 23:57:00,67.6,67.0,29.84,SE,135,1.4,3.0,99,0.00,,,0.01,Rainwise IP-100,2013-10-31 04:57:00,